Location: Dal�� Lhota
(48.7500°N, 14.0167°E)
Time: 20:36:34
(UTC+00:00)

Transit 2A - Pass Details

Date: 02 August 2021
Orbit: 594 x 964 km, 66.7° (Epoch: 27 September)

Event Time Altitude Azimuth Distance (km) Brightness Sun altitude
Rises 09:53:40 0° 318° (NW) 3,057 8.8 55.2°
Reaches altitude 10° 09:58:07 10° 356° (N) 2,243 8.2 55.6°
Maximum altitude 09:59:19 11° 10° (N) 2,220 8.3 55.7°
Drops below altitude 10° 10:00:34 10° 24° (NNE) 2,301 8.4 55.8°
Sets 10:05:24 0° 61° (ENE) 3,347 9.3 56.2°
